Time[GMT],significant_wave_height[m](0m),dominant_wave_period[s](0m)
2018-01-24 18:00, 0.78,3.2
2018-01-24 19:00, 0.86,3.2
2018-01-24 20:00,,
2018-01-24 21:00, 0.72,3.2
2018-01-24 22:00, 0.71,2.7
2018-01-24 23:00, 0.52,2.3
2018-01-25 00:00, 0.63,2.5
2018-01-25 01:00, 0.60,2.5
2018-01-25 02:00, 0.59,2.9
2018-01-25 03:00, 0.78,10.7
2018-01-25 04:00,,
2018-01-25 05:00, 0.53,2.7
2018-01-25 06:00, 0.55,2.9
2018-01-25 07:00, 0.69,2.7
2018-01-25 08:00, 0.67,2.9
2018-01-25 09:00, 0.65,2.9
2018-01-25 10:00, 0.67,2.7
2018-01-25 11:00, 0.61,2.7
2018-01-25 12:00, 0.51,2.7
2018-01-25 13:00, 0.79,10.7
2018-01-25 14:00, 0.69,10.7
2018-01-25 15:00, 0.45,2.1
2018-01-25 16:00,,
2018-01-25 17:00, 0.44,2.7
2018-01-25 18:00, 0.49,2.7
2018-01-25 19:00, 0.55,3.2
2018-01-25 20:00, 0.58,3.2
2018-01-25 21:00, 0.64,3.2
2018-01-25 22:00, 0.57,2.9
2018-01-25 23:00, 0.49,2.3
2018-01-26 00:00, 0.48,2.5
2018-01-26 01:00, 0.55,2.7
2018-01-26 02:00, 0.54,2.7
2018-01-26 03:00, 0.47,2.7
2018-01-26 04:00, 0.34,2.3
2018-01-26 05:00, 0.27,2.3
2018-01-26 06:00, 0.27,2.3
2018-01-26 07:00, 0.43,2.7
2018-01-26 08:00, 0.28,2.1
2018-01-26 09:00, 0.30,2.5
2018-01-26 10:00, 0.32,2.0
2018-01-26 11:00, 0.37,2.3
2018-01-26 12:00, 0.46,2.7
2018-01-26 13:00, 0.44,2.5
2018-01-26 14:00, 0.74,2.9
2018-01-26 15:00, 0.78,2.9
2018-01-26 16:00, 0.53,2.9
2018-01-26 17:00, 0.35,2.7
2018-01-26 18:00, 0.34,2.5
2018-01-26 19:00, 0.35,2.5
2018-01-26 20:00, 0.31,2.5
2018-01-26 21:00, 0.26,2.3
2018-01-26 22:00, 0.27,2.1
2018-01-26 23:00, 0.24,2.1
2018-01-27 00:00, 0.17,4.6
2018-01-27 01:00, 0.15,4.0
2018-01-27 02:00, 0.16,4.0
2018-01-27 03:00, 0.13,8.0
2018-01-27 04:00, 0.18,16.0
2018-01-27 05:00, 0.19,2.0
2018-01-27 06:00, 0.25,2.1
2018-01-27 07:00,,
2018-01-27 08:00, 0.59,3.2
2018-01-27 09:00, 0.18,2.7
2018-01-27 10:00,,
2018-01-27 11:00, 0.18,2.7
2018-01-27 12:00, 0.18,2.7
2018-01-27 13:00, 0.18,2.7
2018-01-27 14:00, 1.45,5.3
2018-01-27 15:00, 1.42,5.3
2018-01-27 16:00, 1.36,8.0
2018-01-27 17:00, 1.29,8.0
2018-01-27 19:00, 1.56,8.0
2018-01-27 20:00,,
2018-01-27 21:00,,
2018-01-27 22:00,,
2018-01-27 23:00,,
2018-01-28 00:00,,
2018-01-28 01:00,,
2018-01-28 02:00,,
2018-01-28 03:00,,
2018-01-28 04:00,,
2018-01-28 05:00,,
2018-01-28 06:00,,
2018-01-28 07:00,,
2018-01-28 08:00,,
2018-01-28 09:00,,
2018-01-28 10:00,,
2018-01-28 11:00, 1.22,8.0
2018-01-28 12:00, 1.29,8.0
2018-01-28 13:00, 1.15,8.0
2018-01-28 14:00, 1.15,8.0
2018-01-28 15:00, 1.18,8.0
2018-01-28 16:00, 1.09,8.0
2018-01-28 17:00, 1.18,8.0
2018-01-28 18:00, 1.09,8.0
2018-01-28 19:00,,
2018-01-28 20:00, 0.94,8.0
2018-01-28 21:00, 0.91,8.0
2018-01-28 22:00, 0.94,8.0
2018-01-28 23:00, 0.88,8.0
2018-01-29 00:00, 0.79,8.0
2018-01-29 01:00, 0.62,6.4
2018-01-29 02:00, 0.60,8.0
2018-01-29 03:00, 0.67,8.0
2018-01-29 04:00, 0.64,6.4
2018-01-29 05:00, 0.69,8.0
2018-01-29 06:00, 0.82,8.0
2018-01-29 07:00, 0.55,2.9
2018-01-29 08:00,,
2018-01-29 09:00, 0.76,8.0
2018-01-29 10:00, 0.64,3.6
2018-01-29 11:00, 0.93,4.0
2018-01-29 12:00, 0.94,4.0
2018-01-29 13:00, 0.87,3.6
2018-01-29 14:00,,
2018-01-29 15:00, 1.00,3.6
2018-01-29 16:00, 0.95,3.6
2018-01-29 17:00, 0.95,3.6
2018-01-29 18:00, 0.84,3.2
2018-01-29 19:00, 0.70,3.2
2018-01-29 20:00, 0.68,3.2
2018-01-29 21:00, 0.82,3.2
2018-01-29 22:00, 0.75,3.6
2018-01-29 23:00, 0.71,3.6
2018-01-30 00:00, 0.72,3.6
2018-01-30 01:00, 0.70,3.6
2018-01-30 02:00, 0.86,3.6
2018-01-30 03:00, 0.98,3.6
2018-01-30 04:00, 1.12,3.6
2018-01-30 05:00, 1.10,3.6
2018-01-30 06:00, 0.85,3.6
2018-01-30 07:00, 0.98,3.6
2018-01-30 08:00, 1.18,8.0
2018-01-30 09:00, 1.11,4.0
2018-01-30 10:00, 1.42,4.0
2018-01-30 11:00, 1.21,4.6
2018-01-30 12:00, 1.35,4.6
2018-01-30 13:00, 1.58,4.6
2018-01-30 14:00, 1.48,4.6
2018-01-30 15:00,,
2018-01-30 16:00,,
2018-01-30 17:00, 1.48,4.0
2018-01-30 18:00, 1.55,4.0
2018-01-30 19:00, 1.32,4.0
2018-01-30 20:00, 1.27,4.0
2018-01-30 21:00,,
2018-01-30 22:00, 1.20,4.0
2018-01-30 23:00, 1.08,4.0
2018-01-31 00:00, 1.06,3.6
2018-01-31 01:00, 0.95,3.6
2018-01-31 02:00,,
2018-01-31 03:00, 0.96,3.6
2018-01-31 04:00, 0.81,3.2
2018-01-31 05:00, 0.83,3.2
2018-01-31 06:00,,
2018-01-31 07:00,,
2018-01-31 08:00, 0.44,2.9
2018-01-31 09:00, 0.37,2.9
2018-01-31 10:00, 0.40,2.5
2018-01-31 11:00, 0.35,2.1
2018-01-31 12:00, 0.44,10.7
2018-01-31 13:00, 0.31,2.0
2018-01-31 14:00, 0.33,6.4
2018-01-31 15:00, 0.34,2.1
2018-01-31 16:00, 0.31,2.0
2018-01-31 17:00, 0.47,10.7
2018-01-31 18:00, 0.50,10.7
2018-01-31 19:00, 0.26,6.4
2018-01-31 20:00, 0.43,10.7
2018-01-31 21:00, 0.46,10.7
2018-01-31 22:00, 0.48,10.7
2018-01-31 23:00, 0.34,4.6
2018-02-01 00:00, 0.54,10.7
2018-02-01 01:00, 0.61,10.7
2018-02-01 02:00, 0.57,2.5
2018-02-01 03:00, 0.77,3.6
2018-02-01 04:00, 0.88,4.0
2018-02-01 05:00, 1.14,5.3
2018-02-01 06:00, 1.36,6.4
2018-02-01 07:00, 1.37,6.4
2018-02-01 08:00, 1.37,6.4
2018-02-01 09:00, 1.27,8.0
2018-02-01 10:00, 1.00,8.0
2018-02-01 11:00, 1.05,8.0
2018-02-01 12:00, 1.07,8.0
2018-02-01 13:00, 1.18,8.0
2018-02-01 14:00, 1.14,8.0
2018-02-01 15:00, 1.10,8.0
2018-02-01 16:00, 1.03,8.0
2018-02-01 17:00, 1.10,8.0
2018-02-01 18:00, 1.18,8.0
2018-02-01 19:00, 1.26,8.0
2018-02-01 20:00, 1.30,8.0
2018-02-01 21:00, 0.97,8.0
2018-02-01 22:00, 0.94,8.0
2018-02-01 23:00, 0.90,6.4
2018-02-02 00:00, 0.92,6.4
2018-02-02 01:00, 0.89,6.4
2018-02-02 02:00, 0.98,6.4
2018-02-02 03:00, 1.05,6.4
2018-02-02 04:00, 1.09,6.4
2018-02-02 05:00, 1.17,6.4
2018-02-02 06:00, 1.18,6.4
2018-02-02 07:00, 1.05,6.4
2018-02-02 08:00, 0.99,6.4
2018-02-02 09:00, 0.89,6.4
2018-02-02 10:00, 0.79,6.4
2018-02-02 11:00, 0.74,6.4
2018-02-02 12:00, 0.65,6.4
2018-02-02 13:00, 0.59,2.9
2018-02-02 14:00, 0.80,3.2
2018-02-02 15:00, 0.92,3.6
2018-02-02 16:00, 0.93,3.6
2018-02-02 17:00, 0.90,3.6
2018-02-02 18:00, 0.86,3.2
2018-02-02 19:00, 0.87,3.2
2018-02-02 20:00, 0.83,2.9
2018-02-02 21:00, 0.79,2.9
2018-02-02 22:00, 0.78,2.9
2018-02-02 23:00, 0.76,2.9
2018-02-03 00:00, 0.77,2.9
2018-02-03 01:00, 0.64,2.9
2018-02-03 02:00, 0.64,3.2
2018-02-03 03:00, 0.63,3.2
2018-02-03 04:00, 0.51,2.9
2018-02-03 05:00, 0.45,2.7
2018-02-03 06:00, 0.45,2.5
2018-02-03 07:00, 0.46,2.5
2018-02-03 08:00, 0.38,1.9
2018-02-03 09:00, 0.38,1.9
2018-02-03 10:00, 0.34,2.3
2018-02-03 11:00, 0.33,2.0
2018-02-03 12:00, 0.50,10.7
2018-02-03 13:00, 0.44,2.3
2018-02-03 14:00, 0.53,10.7
2018-02-03 15:00, 0.41,2.3
2018-02-03 16:00, 0.33,2.3
2018-02-03 17:00, 0.41,10.7
2018-02-03 18:00, 0.36,10.7
2018-02-03 19:00, 0.37,10.7
2018-02-03 20:00, 0.47,5.3
2018-02-03 21:00, 0.47,5.3
2018-02-03 22:00, 0.63,5.3
2018-02-03 23:00, 0.56,5.3
2018-02-04 00:00, 0.62,4.6
2018-02-04 01:00, 0.57,5.3
2018-02-04 02:00, 0.57,5.3
2018-02-04 03:00, 0.75,3.6
2018-02-04 04:00, 0.83,5.3
2018-02-04 05:00, 0.88,5.3
2018-02-04 06:00, 1.01,6.4
2018-02-04 07:00, 1.05,3.6
2018-02-04 08:00, 1.17,5.3
2018-02-04 09:00, 1.41,6.4
2018-02-04 10:00, 1.49,6.4
2018-02-04 11:00, 1.64,6.4
2018-02-04 12:00, 1.53,6.4
2018-02-04 13:00, 1.70,5.3
2018-02-04 14:00, 1.83,6.4
2018-02-04 15:00, 1.92,8.0
2018-02-04 16:00, 1.82,8.0
2018-02-04 17:00, 1.98,8.0
2018-02-04 18:00, 1.85,8.0
2018-02-04 19:00, 1.80,8.0
2018-02-04 20:00, 1.57,8.0
2018-02-04 21:00, 1.44,8.0
2018-02-04 22:00, 1.57,8.0
2018-02-04 23:00, 1.63,8.0
2018-02-05 00:00, 1.38,8.0
2018-02-05 01:00,,
2018-02-05 02:00, 1.96,8.0
2018-02-05 03:00, 1.98,6.4
2018-02-05 05:00, 1.41,8.0
2018-02-05 06:00, 1.36,8.0
2018-02-05 07:00, 1.14,8.0
2018-02-05 08:00, 1.29,8.0
2018-02-05 09:00, 1.06,6.4
2018-02-05 10:00, 0.89,6.4
2018-02-05 11:00, 0.97,6.4
2018-02-05 12:00, 1.10,6.4
2018-02-05 13:00, 1.22,8.0
2018-02-05 14:00, 1.31,8.0
2018-02-05 15:00, 1.34,8.0
2018-02-05 16:00, 1.19,8.0
2018-02-05 17:00, 1.21,8.0
2018-02-05 18:00, 1.20,8.0
2018-02-05 19:00, 0.90,2.9
2018-02-05 20:00, 0.92,2.9
2018-02-05 21:00, 0.80,2.9
2018-02-05 22:00, 1.36,10.7
2018-02-05 23:00,,
2018-02-06 00:00,,
2018-02-06 01:00, 1.11,10.7
2018-02-06 02:00, 1.19,10.7
2018-02-06 03:00, 1.09,10.7
2018-02-06 04:00,,
2018-02-06 05:00, 0.47,2.9
2018-02-06 06:00, 0.92,10.7
2018-02-06 07:00,,
2018-02-06 08:00, 0.89,10.7
2018-02-06 09:00, 0.84,10.7
2018-02-06 10:00, 0.77,10.7
2018-02-06 11:00, 0.79,10.7
2018-02-06 12:00, 0.67,10.7
2018-02-06 13:00, 0.92,10.7
2018-02-06 14:00, 0.83,10.7
2018-02-06 15:00, 0.70,10.7
2018-02-06 16:00, 0.76,10.7
2018-02-06 17:00, 0.80,10.7
2018-02-06 18:00,,
2018-02-06 19:00, 0.62,3.6
2018-02-06 20:00, 0.60,3.6
2018-02-06 21:00, 0.58,3.6
2018-02-06 22:00, 0.96,10.7
2018-02-06 23:00, 0.88,10.7
2018-02-07 00:00, 0.81,10.7
2018-02-07 01:00, 0.83,10.7
2018-02-07 02:00, 0.77,10.7
2018-02-07 03:00, 0.87,10.7
2018-02-07 04:00, 0.77,10.7
2018-02-07 05:00, 0.79,10.7
2018-02-07 06:00, 0.67,10.7
2018-02-07 07:00, 0.56,5.3
2018-02-07 08:00, 0.55,2.9
2018-02-07 09:00,,
2018-02-07 10:00,,
2018-02-07 11:00, 0.68,10.7
2018-02-07 12:00, 0.74,10.7
2018-02-07 13:00, 0.70,10.7
2018-02-07 14:00, 0.54,8.0
2018-02-07 15:00, 0.66,8.0
2018-02-07 16:00, 0.55,2.5
2018-02-07 17:00, 0.64,2.7
2018-02-07 18:00, 0.86,8.0
2018-02-07 19:00, 0.91,4.0
2018-02-07 20:00,,
2018-02-07 21:00, 1.43,5.3
2018-02-07 22:00, 1.57,5.3
2018-02-07 23:00, 1.56,6.4
2018-02-08 00:00, 1.70,6.4
2018-02-08 01:00, 1.57,8.0
2018-02-08 02:00,,
2018-02-08 03:00, 1.59,8.0
2018-02-08 04:00, 1.53,8.0
2018-02-08 05:00, 1.41,8.0
2018-02-08 06:00, 1.33,8.0
2018-02-08 07:00, 1.25,8.0
2018-02-08 08:00,,
2018-02-08 09:00, 1.15,8.0
2018-02-08 10:00, 1.00,8.0
2018-02-08 11:00, 0.95,8.0
2018-02-08 12:00, 1.03,8.0
2018-02-08 13:00, 0.62,2.7
2018-02-08 14:00, 0.82,8.0
2018-02-08 15:00, 0.77,8.0
2018-02-08 16:00, 0.77,8.0
2018-02-08 17:00, 0.56,2.9
2018-02-08 18:00, 0.71,8.0
2018-02-08 19:00, 0.51,2.7
2018-02-08 20:00, 0.55,2.7
2018-02-08 21:00, 0.49,2.7
2018-02-08 22:00, 0.72,10.7
2018-02-08 23:00, 0.66,10.7
2018-02-09 00:00, 0.59,10.7
2018-02-09 01:00, 0.44,2.0
2018-02-09 02:00, 0.48,2.1
2018-02-09 03:00, 0.38,2.3
2018-02-09 04:00, 0.41,2.5
2018-02-09 05:00, 0.46,10.7
2018-02-09 06:00, 0.49,10.7
2018-02-09 07:00, 0.50,10.7
2018-02-09 08:00, 0.48,10.7
2018-02-09 09:00, 0.50,10.7
2018-02-09 10:00, 0.42,10.7
2018-02-09 11:00, 0.57,10.7
2018-02-09 12:00, 0.39,1.9
2018-02-09 13:00, 0.46,1.9
2018-02-09 14:00, 0.47,5.3
2018-02-09 15:00, 0.38,5.3
2018-02-09 16:00, 0.53,10.7
2018-02-09 17:00, 0.49,8.0
2018-02-09 18:00, 0.45,8.0
2018-02-09 19:00, 0.38,2.9
2018-02-09 20:00, 0.58,8.0
2018-02-09 21:00, 0.56,8.0
2018-02-09 22:00, 0.50,8.0
2018-02-09 23:00, 0.51,8.0
2018-02-10 00:00, 0.49,4.6
2018-02-10 01:00, 0.53,5.3
2018-02-10 02:00, 0.62,5.3
2018-02-10 03:00, 0.54,5.3
2018-02-10 04:00, 0.53,5.3
2018-02-10 05:00, 0.53,4.6
2018-02-10 06:00, 0.54,4.6
2018-02-10 07:00, 0.64,4.6
2018-02-10 08:00, 0.62,5.3
2018-02-10 09:00, 0.92,5.3
2018-02-10 10:00, 1.01,6.4
2018-02-10 11:00, 1.29,6.4
2018-02-10 12:00, 1.27,6.4
2018-02-10 13:00, 1.15,6.4
2018-02-10 14:00, 1.03,6.4
2018-02-10 15:00, 1.08,6.4
2018-02-10 16:00, 1.09,6.4
2018-02-10 17:00, 1.02,6.4
2018-02-10 18:00, 1.06,6.4
2018-02-10 19:00, 1.09,6.4
2018-02-10 20:00, 1.02,6.4
2018-02-10 21:00, 0.92,6.4
2018-02-10 22:00, 0.97,6.4
2018-02-10 23:00, 1.02,6.4
2018-02-11 00:00, 1.00,6.4
2018-02-11 01:00, 1.04,6.4
2018-02-11 02:00, 1.03,6.4
2018-02-11 03:00, 1.02,6.4
2018-02-11 04:00, 1.01,6.4
2018-02-11 05:00, 1.06,6.4
2018-02-11 06:00, 1.07,6.4
2018-02-11 07:00, 0.97,6.4
2018-02-11 08:00, 0.95,6.4
2018-02-11 09:00, 1.03,6.4
2018-02-11 10:00, 0.85,6.4
2018-02-11 11:00, 0.93,6.4
2018-02-11 12:00, 0.87,3.2
2018-02-11 13:00, 0.97,6.4
2018-02-11 14:00, 0.95,3.2
2018-02-11 15:00, 0.87,6.4
2018-02-11 16:00, 0.79,6.4
2018-02-11 17:00, 0.75,6.4
2018-02-11 18:00, 0.72,6.4
2018-02-11 19:00, 0.67,6.4
2018-02-11 20:00, 0.66,6.4
2018-02-11 21:00, 0.83,6.4
2018-02-11 22:00, 0.78,6.4
2018-02-11 23:00, 0.91,6.4
2018-02-12 00:00, 0.81,6.4
2018-02-12 01:00, 0.93,6.4
2018-02-12 02:00, 0.87,6.4
2018-02-12 03:00, 0.76,6.4
2018-02-12 04:00, 0.92,8.0
2018-02-12 05:00, 0.80,8.0
2018-02-12 06:00, 0.78,8.0
2018-02-12 07:00, 0.79,8.0
2018-02-12 08:00, 0.90,8.0
2018-02-12 09:00, 0.86,8.0
2018-02-12 10:00,,
2018-02-12 11:00,,
2018-02-12 12:00, 0.82,8.0
2018-02-12 13:00, 1.01,8.0
2018-02-12 14:00, 0.93,8.0
2018-02-12 15:00, 1.15,8.0
2018-02-12 16:00, 1.04,8.0
2018-02-12 17:00, 1.06,8.0
2018-02-12 18:00, 0.59,2.5
2018-02-12 19:00, 0.90,8.0
2018-02-12 20:00, 0.84,8.0
2018-02-12 21:00, 0.80,8.0
2018-02-12 22:00, 0.46,2.7
2018-02-12 23:00,,
2018-02-13 00:00,,
2018-02-13 01:00, 0.73,8.0
2018-02-13 02:00, 0.59,2.7
2018-02-13 03:00,,
2018-02-13 04:00, 0.62,2.7
2018-02-13 05:00, 0.53,2.5
2018-02-13 06:00, 0.49,2.3
2018-02-13 07:00, 0.39,2.3
2018-02-13 08:00, 0.43,2.3
2018-02-13 09:00, 0.41,2.5
2018-02-13 10:00,,
2018-02-13 11:00, 0.60,2.9
2018-02-13 12:00,,
2018-02-13 13:00, 0.65,3.2
2018-02-13 14:00, 0.54,2.9
2018-02-13 15:00, 0.48,2.5
2018-02-13 16:00, 0.42,2.5
2018-02-13 17:00, 0.43,2.3
2018-02-13 18:00, 0.27,2.1
2018-02-13 19:00, 0.33,10.7
2018-02-13 20:00, 0.26,10.7
2018-02-13 21:00, 0.25,10.7
2018-02-13 22:00, 0.24,8.0
2018-02-13 23:00, 0.22,8.0
2018-02-14 00:00,,
2018-02-14 01:00, 0.25,2.0
2018-02-14 02:00, 0.42,2.7
2018-02-14 03:00,,
2018-02-14 04:00, 0.71,3.6
2018-02-14 05:00, 0.82,4.6
2018-02-14 06:00,,
2018-02-14 07:00, 1.09,4.6
2018-02-14 08:00,,
2018-02-14 09:00, 1.04,2.9
2018-02-14 10:00,,
2018-02-14 11:00, 1.06,6.4
2018-02-14 12:00, 1.20,6.4
2018-02-14 13:00,,
2018-02-14 14:00,,
2018-02-14 15:00, 1.30,6.4
2018-02-14 16:00, 1.25,8.0
2018-02-14 17:00,,
2018-02-14 18:00,,
2018-02-14 19:00, 1.12,8.0
2018-02-14 20:00, 1.11,6.4
2018-02-14 21:00, 1.00,8.0
2018-02-14 22:00, 0.79,6.4
2018-02-14 23:00, 0.78,6.4
2018-02-15 00:00,,
2018-02-15 01:00, 0.79,6.4
2018-02-15 02:00,,
2018-02-15 03:00, 0.63,6.4
2018-02-15 04:00, 0.61,6.4
2018-02-15 05:00, 0.55,5.3
2018-02-15 06:00, 0.54,6.4
2018-02-15 07:00,,
2018-02-15 08:00,,
2018-02-15 09:00, 0.62,5.3
2018-02-15 10:00, 0.58,5.3
2018-02-15 11:00, 0.53,5.3
2018-02-15 12:00, 0.62,5.3
2018-02-15 13:00, 0.60,6.4
2018-02-15 14:00, 0.56,5.3
2018-02-15 15:00, 0.55,6.4
2018-02-15 16:00, 0.58,6.4
2018-02-15 17:00,,
2018-02-15 18:00,,
2018-02-15 19:00,,
2018-02-15 20:00, 0.67,6.4
2018-02-15 21:00, 0.67,6.4
2018-02-15 22:00, 0.63,6.4
2018-02-15 23:00, 0.59,6.4
2018-02-16 00:00,,
2018-02-16 01:00,,
2018-02-16 02:00,,
2018-02-16 03:00,,
2018-02-16 04:00, 0.83,6.4
2018-02-16 05:00, 0.83,5.3
2018-02-16 06:00, 0.88,6.4
2018-02-16 07:00,,
2018-02-16 08:00, 0.93,6.4
2018-02-16 09:00, 0.83,6.4
2018-02-16 10:00,,
2018-02-16 11:00,,
2018-02-16 12:00, 0.81,5.3
2018-02-16 13:00, 0.81,5.3
2018-02-16 14:00, 0.73,6.4
2018-02-16 15:00,,
2018-02-16 16:00, 0.67,6.4
2018-02-16 17:00, 0.74,6.4
2018-02-16 18:00, 0.67,6.4
2018-02-16 19:00, 0.67,6.4
2018-02-16 20:00,,
2018-02-16 21:00, 0.63,8.0
2018-02-16 22:00, 0.64,10.7
2018-02-16 23:00, 0.60,8.0
2018-02-17 00:00,,
2018-02-17 01:00, 0.64,3.2
2018-02-17 02:00,,
2018-02-17 03:00,,
2018-02-17 04:00, 0.93,3.6
2018-02-17 05:00, 0.94,3.6
2018-02-17 06:00, 0.97,3.6
2018-02-17 07:00,,
2018-02-17 08:00, 0.82,2.9
2018-02-17 09:00, 0.70,2.9
2018-02-17 10:00, 0.65,2.9
2018-02-17 11:00, 0.49,2.9
2018-02-17 12:00, 0.41,2.9
2018-02-17 13:00,,
2018-02-17 14:00,,
2018-02-17 15:00, 0.38,2.7
2018-02-17 16:00, 0.35,2.5
2018-02-17 17:00, 0.19,2.0
2018-02-17 18:00, 0.28,10.7
2018-02-17 19:00, 0.23,10.7
2018-02-17 20:00, 0.11,2.0
2018-02-17 21:00,,
2018-02-17 22:00, 0.38,3.2
2018-02-17 23:00, 0.46,3.2
2018-02-18 00:00,,
2018-02-18 01:00,,
2018-02-18 02:00,,
2018-02-18 03:00, 1.18,4.0
2018-02-18 04:00, 1.41,5.3
2018-02-18 05:00, 1.26,5.3
2018-02-18 06:00,,
2018-02-18 07:00,,
2018-02-18 08:00, 1.15,6.4
2018-02-18 09:00, 1.13,6.4
2018-02-18 10:00,,
2018-02-18 11:00,,
2018-02-18 12:00,,
2018-02-18 13:00,,
2018-02-18 14:00, 1.43,8.0
2018-02-18 15:00,,
2018-02-18 16:00, 1.14,8.0
2018-02-18 17:00, 0.93,8.0
2018-02-18 18:00, 1.06,8.0
2018-02-18 19:00, 0.92,6.4
2018-02-18 20:00, 0.73,6.4
2018-02-18 21:00, 0.67,6.4
2018-02-18 22:00, 0.63,6.4
2018-02-18 23:00, 0.50,6.4
2018-02-19 00:00, 0.38,6.4
2018-02-19 01:00, 0.37,6.4
2018-02-19 02:00, 0.44,6.4
2018-02-19 03:00, 0.41,6.4
2018-02-19 04:00, 0.43,8.0
2018-02-19 05:00, 0.37,8.0
2018-02-19 06:00, 0.41,10.7
2018-02-19 07:00, 0.52,10.7
2018-02-19 08:00, 0.68,10.7
2018-02-19 09:00, 0.90,10.7
2018-02-19 10:00, 0.85,10.7
2018-02-19 11:00, 0.74,8.0
2018-02-19 12:00, 0.95,10.7
2018-02-19 13:00, 0.73,8.0
2018-02-19 14:00, 0.45,2.7
2018-02-19 15:00, 0.63,2.9
2018-02-19 16:00,,
2018-02-19 17:00, 0.99,4.6
2018-02-19 18:00, 1.17,5.3
2018-02-19 19:00, 1.36,6.4
2018-02-19 20:00, 1.61,6.4
2018-02-19 21:00, 1.61,6.4
2018-02-19 22:00, 1.65,6.4
2018-02-19 23:00, 1.51,6.4
2018-02-20 00:00, 1.50,6.4
2018-02-20 01:00, 1.30,6.4
2018-02-20 02:00, 1.31,6.4
2018-02-20 03:00, 1.29,6.4
2018-02-20 04:00, 1.27,6.4
2018-02-20 05:00, 1.33,6.4
2018-02-20 06:00, 1.06,6.4
2018-02-20 07:00, 1.01,6.4
2018-02-20 08:00, 1.09,6.4
2018-02-20 09:00, 1.05,6.4
2018-02-20 10:00, 1.08,6.4
2018-02-20 11:00, 1.04,6.4
2018-02-20 12:00, 0.93,6.4
2018-02-20 13:00, 0.92,6.4
2018-02-20 14:00, 0.85,6.4
2018-02-20 15:00, 0.87,6.4
2018-02-20 16:00, 0.84,6.4
2018-02-20 17:00, 0.85,6.4
2018-02-20 18:00, 0.84,6.4
2018-02-20 19:00, 0.86,6.4
2018-02-20 20:00, 0.88,6.4
2018-02-20 21:00, 0.82,6.4
2018-02-20 22:00, 0.79,6.4
2018-02-20 23:00, 0.80,6.4
2018-02-21 00:00, 0.81,6.4
2018-02-21 01:00, 0.81,6.4
2018-02-21 02:00, 0.78,6.4
2018-02-21 03:00, 0.78,6.4
2018-02-21 04:00,,
2018-02-21 05:00,,
2018-02-21 07:00, 0.72,6.4
2018-02-21 08:00, 0.77,6.4
2018-02-21 09:00, 0.74,6.4
2018-02-21 10:00, 0.67,8.0
2018-02-21 11:00, 0.61,6.4
2018-02-21 12:00, 0.69,6.4
2018-02-21 13:00, 0.70,8.0
2018-02-21 14:00, 0.70,6.4
2018-02-21 15:00, 0.68,6.4
2018-02-21 16:00, 0.70,6.4
2018-02-21 17:00,,
2018-02-21 18:00, 0.84,8.0
2018-02-21 19:00, 0.91,6.4
2018-02-21 20:00, 1.07,6.4
2018-02-21 21:00, 1.13,8.0
2018-02-21 22:00, 1.10,6.4
2018-02-21 23:00, 1.03,6.4
2018-02-22 00:00, 1.01,6.4
2018-02-22 01:00,,
2018-02-22 02:00, 0.94,6.4
2018-02-22 03:00, 0.95,6.4
2018-02-22 04:00, 1.10,8.0
2018-02-22 05:00, 1.19,8.0
2018-02-22 06:00, 1.05,8.0
2018-02-22 07:00, 1.00,8.0
2018-02-22 08:00, 1.05,8.0
2018-02-22 09:00, 0.98,3.2
2018-02-22 10:00, 0.73,2.9
2018-02-22 11:00, 0.76,3.2
2018-02-22 12:00, 0.74,2.9
2018-02-22 13:00, 0.60,2.9
2018-02-22 14:00, 0.51,2.9
2018-02-22 15:00, 0.40,2.7
2018-02-22 16:00, 0.34,6.4
2018-02-22 17:00, 0.38,6.4
2018-02-22 18:00, 0.30,6.4
2018-02-22 19:00, 0.29,6.4
2018-02-22 20:00, 0.32,6.4
2018-02-22 21:00, 0.31,6.4
2018-02-22 22:00, 0.35,6.4
2018-02-22 23:00, 0.39,8.0
2018-02-23 00:00, 0.32,8.0
2018-02-23 01:00, 0.29,8.0
2018-02-23 02:00, 0.28,8.0
2018-02-23 03:00, 0.36,2.1
2018-02-23 04:00, 0.39,2.3
2018-02-23 05:00, 0.51,2.9
2018-02-23 06:00, 0.46,2.9
2018-02-23 07:00, 0.48,2.9
2018-02-23 08:00, 0.40,2.7
2018-02-23 09:00, 0.49,2.5
2018-02-23 10:00, 0.40,2.7
2018-02-23 11:00, 0.28,2.5
2018-02-23 12:00, 0.29,2.1
2018-02-23 13:00, 0.32,2.0
2018-02-23 14:00, 0.33,2.1
2018-02-23 15:00, 0.32,2.0
2018-02-23 16:00, 0.33,3.6
2018-02-23 17:00, 0.41,2.7
2018-02-23 18:00, 0.47,2.7
2018-02-23 19:00, 0.45,6.4
2018-02-23 20:00, 0.44,6.4
2018-02-23 21:00, 0.38,2.9
2018-02-23 22:00, 0.54,2.9
2018-02-23 23:00, 0.67,3.2
2018-02-24 00:00, 0.95,4.0
2018-02-24 01:00, 1.08,4.6
2018-02-24 02:00,,
2018-02-24 03:00, 1.42,5.3
2018-02-24 04:00, 1.17,5.3
2018-02-24 05:00, 1.11,5.3
2018-02-24 06:00, 1.16,5.3
2018-02-24 07:00, 1.06,5.3
2018-02-24 08:00, 0.97,6.4
2018-02-24 09:00, 0.90,5.3
2018-02-24 10:00, 0.86,5.3
2018-02-24 11:00, 0.77,5.3
2018-02-24 12:00, 0.69,6.4
2018-02-24 13:00, 0.71,6.4
2018-02-24 14:00, 0.64,5.3
2018-02-24 15:00, 0.63,5.3
2018-02-24 16:00, 0.56,5.3
2018-02-24 17:00, 0.60,5.3
2018-02-24 18:00, 0.60,5.3
2018-02-24 19:00, 0.58,2.5
2018-02-24 20:00,,
2018-02-24 21:00, 0.64,2.7
2018-02-24 22:00, 0.60,2.7
2018-02-24 23:00, 0.58,5.3
2018-02-25 00:00, 0.54,2.3
2018-02-25 01:00, 0.49,5.3
2018-02-25 02:00, 0.67,2.7
2018-02-25 03:00, 0.67,2.9
2018-02-25 04:00, 0.76,3.2
2018-02-25 05:00,,
2018-02-25 06:00, 0.50,2.9
2018-02-25 07:00, 0.46,6.4
2018-02-25 08:00, 0.52,2.7
2018-02-25 09:00, 0.36,2.9
2018-02-25 10:00,,
2018-02-25 11:00, 0.48,2.7
2018-02-25 12:00, 0.58,2.7
2018-02-25 13:00, 0.53,2.7
2018-02-25 14:00, 0.55,6.4
2018-02-25 15:00, 0.56,6.4
2018-02-25 16:00, 0.81,4.6
2018-02-25 17:00, 0.86,4.6
2018-02-25 18:00, 0.91,4.0
2018-02-25 19:00,,
2018-02-25 20:00, 1.07,5.3
2018-02-25 21:00, 1.28,5.3
2018-02-25 22:00,,
2018-02-25 23:00, 1.34,6.4
2018-02-26 00:00, 1.49,6.4
2018-02-26 01:00, 1.54,8.0
2018-02-26 02:00, 1.47,8.0
2018-02-26 03:00, 1.26,8.0
2018-02-26 04:00, 1.35,8.0
2018-02-26 05:00, 1.33,8.0
2018-02-26 06:00, 1.34,8.0
2018-02-26 07:00, 1.48,8.0
2018-02-26 08:00, 1.42,8.0
2018-02-26 09:00, 1.25,8.0
2018-02-26 10:00, 1.40,8.0
2018-02-26 11:00, 1.24,8.0
2018-02-26 12:00, 1.24,8.0
2018-02-26 13:00, 1.20,8.0
2018-02-26 14:00, 1.21,8.0
2018-02-26 15:00, 1.24,8.0
2018-02-26 16:00, 1.16,8.0
2018-02-26 17:00, 1.06,8.0
2018-02-26 18:00, 0.99,8.0
2018-02-26 19:00, 0.90,8.0
2018-02-26 20:00, 0.94,8.0
2018-02-26 21:00, 0.96,8.0
2018-02-26 22:00, 0.97,8.0
2018-02-26 23:00, 0.89,8.0
2018-02-27 00:00, 0.45,2.5
2018-02-27 01:00, 0.80,8.0
2018-02-27 02:00, 0.90,8.0
2018-02-27 03:00, 0.98,10.7
2018-02-27 04:00,,
2018-02-27 05:00, 0.75,8.0
2018-02-27 06:00, 0.63,8.0
2018-02-27 07:00, 0.62,8.0
2018-02-27 08:00, 0.56,8.0
2018-02-27 09:00, 0.48,8.0
2018-02-27 10:00, 0.48,10.7
2018-02-27 11:00, 0.40,8.0
2018-02-27 12:00, 0.39,10.7
2018-02-27 13:00, 0.41,8.0
2018-02-27 14:00, 0.38,10.7
2018-02-27 15:00, 0.41,10.7
2018-02-27 16:00, 0.24,1.9
2018-02-27 17:00, 0.49,8.0
2018-02-27 18:00, 0.44,8.0
2018-02-27 19:00, 0.49,8.0
2018-02-27 20:00, 0.50,3.2
2018-02-27 21:00, 0.54,2.9
2018-02-27 22:00, 0.56,2.1
2018-02-27 23:00, 0.47,3.6
2018-02-28 00:00, 0.43,4.6
2018-02-28 01:00, 0.44,4.6
2018-02-28 02:00, 0.41,4.6
2018-02-28 03:00, 0.46,4.6
2018-02-28 04:00, 0.41,4.6
2018-02-28 05:00, 0.51,4.6
2018-02-28 06:00, 0.56,4.6
2018-02-28 07:00, 0.63,4.6
2018-02-28 08:00, 0.69,4.6
2018-02-28 09:00, 0.63,5.3
2018-02-28 10:00, 0.67,5.3
2018-02-28 11:00, 0.64,5.3
2018-02-28 12:00,,
2018-02-28 13:00, 0.58,6.4
2018-02-28 14:00, 0.54,6.4
2018-02-28 15:00, 0.68,6.4
2018-02-28 16:00, 0.66,6.4
2018-02-28 17:00, 0.62,6.4
2018-02-28 18:00, 0.59,6.4
2018-02-28 19:00, 0.58,6.4
2018-02-28 20:00, 0.58,6.4
2018-02-28 21:00, 0.62,6.4
2018-02-28 22:00, 0.55,5.3
2018-02-28 23:00, 0.58,5.3
2018-03-01 00:00, 0.45,5.3
2018-03-01 01:00, 0.44,5.3
2018-03-01 02:00, 0.41,6.4
2018-03-01 03:00, 0.51,5.3
2018-03-01 04:00, 0.54,5.3
2018-03-01 05:00, 0.61,6.4
2018-03-01 06:00, 0.79,6.4
2018-03-01 07:00, 0.89,6.4
2018-03-01 08:00, 0.96,6.4
2018-03-01 09:00, 0.84,6.4
2018-03-01 10:00, 0.87,6.4
2018-03-01 11:00, 0.79,6.4
2018-03-01 12:00, 0.69,6.4
2018-03-01 13:00, 0.56,6.4
2018-03-01 14:00, 0.50,6.4
2018-03-01 15:00, 0.52,6.4
2018-03-01 16:00, 0.49,6.4
2018-03-01 17:00, 0.45,6.4
2018-03-01 18:00, 0.39,5.3
2018-03-01 19:00, 0.46,5.3
2018-03-01 20:00, 0.49,5.3
2018-03-01 21:00, 0.46,5.3
2018-03-01 22:00, 0.49,2.7
2018-03-01 23:00, 0.66,2.9
2018-03-02 00:00, 0.76,3.2
2018-03-02 01:00, 0.77,3.6
2018-03-02 02:00, 0.73,3.6
2018-03-02 03:00, 0.92,3.6
2018-03-02 04:00, 0.96,3.6
2018-03-02 05:00, 0.95,3.6
2018-03-02 06:00, 0.85,3.2
2018-03-02 07:00, 0.93,3.2
2018-03-02 08:00, 0.88,3.6
2018-03-02 09:00, 1.04,3.6
2018-03-02 10:00,,
2018-03-02 11:00, 1.13,4.0
2018-03-02 12:00, 1.27,4.0
2018-03-02 13:00, 1.18,4.0